1484413201.0,49616,6.5,71558.8,-17.57,-25.81,-27.29,0,*68
1484413202.26,49617,6.5,71560.5,-17.57,-25.97,-27.39,0,*6F
1484413203.53,49618,6.5,71560.0,-17.57,-25.97,-27.45,0,*6B
1484413204.77,49619,6.5,71560.3,-17.57,-25.91,-27.39,0,*67
1484413206.01,49620,6.5,71562.0,-17.57,-25.91,-27.39,0,*6D
1484413207.27,49621,6.5,71562.0,-17.57,-25.97,-27.45,0,*61
1484413208.49,49622,6.5,71558.0,-17.57,-26.07,-27.55,0,*69
1484413209.74,49623,6.5,71558.3,-17.61,-26.17,-27.67,0,*6D
1484413211.01,49624,6.5,71556.3,-17.57,-25.97,-27.45,0,*64
1484413212.27,49625,6.5,71558.5,-17.57,-25.97,-27.45,0,*65
1484413213.49,49626,6.5,71558.5,-17.57,-26.07,-27.55,0,*6D
1484413214.7,49627,6.5,71554.3,-17.57,-26.07,-27.55,0,*6C
1484413215.96,49628,6.5,71556.8,-17.55,-25.91,-27.45,0,*6C
1484413217.22,49629,6.5,71556.0,-17.55,-25.91,-27.39,0,*66
1484413218.51,49630,6.5,71558.5,-17.55,-25.81,-27.39,0,*6F
1484413219.78,49631,6.5,71556.5,-17.55,-25.91,-27.39,0,*6F
1484413221.01,49632,6.5,71558.0,-17.53,-25.87,-27.39,0,*6D
1484413222.22,49633,6.5,71556.3,-17.53,-25.91,-27.51,0,*65
1484413223.51,49634,6.5,71558.3,-17.55,-25.97,-27.45,0,*67
1484413224.8,49635,6.5,71556.5,-17.55,-25.97,-27.45,0,*66
1484413226.09,49636,6.5,71556.8,-17.55,-25.97,-27.45,0,*65
1484413227.32,49637,6.5,71560.3,-17.53,-25.91,-27.39,0,*6F
1484413228.54,49638,6.5,71560.5,-17.53,-26.03,-27.55,0,*62
1484413229.76,49639,6.5,71556.5,-17.53,-26.03,-27.55,0,*63
1484413231.0,49640,6.5,71558.8,-17.53,-25.91,-27.39,0,*6F
1484413232.26,49641,6.5,71560.0,-17.53,-25.75,-27.23,0,*6F
1484413233.53,49642,6.5,71556.8,-17.53,-25.75,-27.35,0,*6B
1484413234.83,49643,6.5,71556.5,-17.51,-25.71,-27.19,0,*62
1484413236.1,49644,6.5,71556.5,-17.51,-25.55,-27.13,0,*69
1484413237.37,49645,6.5,71560.0,-17.51,-25.55,-27.13,0,*68
1484413238.67,49646,6.5,71558.0,-17.51,-25.55,-27.19,0,*61
1484413239.93,49647,6.5,71552.5,-17.49,-25.71,-27.45,0,*66
1484413241.2,49648,6.5,71554.5,-17.49,-25.81,-27.35,0,*61
1484413242.44,49649,6.5,71550.3,-17.49,-25.81,-27.29,0,*6D
1484413243.67,49650,6.5,71550.0,-17.49,-25.65,-27.29,0,*6F
1484413244.91,49651,6.5,71548.0,-17.49,-25.65,-27.19,0,*6D
1484413246.15,49652,6.5,71548.5,-17.49,-25.81,-27.29,0,*67
1484413247.41,49653,6.5,71548.8,-17.51,-25.87,-27.45,0,*63
1484413248.69,49654,6.5,71544.8,-17.49,-25.97,-27.35,0,*6B
1484413249.92,49655,6.5,71548.8,-17.49,-25.87,-27.45,0,*6C
1484413251.19,49656,6.5,71550.0,-17.49,-25.97,-27.45,0,*6E
1484413252.41,49657,6.5,71550.3,-17.49,-26.03,-27.67,0,*61
1484413253.64,49658,6.5,71548.8,-17.49,-26.03,-27.67,0,*6E
1484413254.86,49659,6.5,71556.5,-17.47,-26.03,-27.51,0,*64
1484413256.13,49660,6.5,71552.0,-17.47,-25.81,-27.35,0,*65
1484413257.37,49661,6.5,71550.0,-17.47,-25.87,-27.45,0,*65
1484413258.6,49662,6.5,71554.0,-17.49,-25.87,-27.45,0,*68
1484413259.87,49663,6.5,71550.3,-17.49,-25.81,-27.35,0,*68
1484413261.15,49664,6.5,71556.3,-17.49,-25.71,-27.35,0,*60
1484413262.39,49665,6.5,71554.0,-17.49,-25.87,-27.35,0,*68
1484413263.66,49666,6.5,71550.8,-17.47,-25.97,-27.61,0,*65
1484413264.88,49667,6.5,71552.5,-17.47,-26.03,-27.51,0,*69
1484413266.13,49668,6.5,71554.3,-17.47,-26.03,-27.61,0,*65
1484413267.4,49669,6.5,71554.8,-17.47,-25.97,-27.61,0,*6A
1484413268.63,49670,6.5,71554.0,-17.47,-26.03,-27.67,0,*6A
1484413269.87,49671,6.5,71552.0,-17.45,-26.07,-27.67,0,*6D
1484413271.09,49672,6.5,71556.8,-17.47,-26.03,-27.71,0,*6F
1484413272.32,49673,6.5,71558.0,-17.47,-26.03,-27.67,0,*69
1484413273.55,49674,6.5,71554.5,-17.47,-26.03,-27.67,0,*6E
1484413274.84,49675,6.5,71556.5,-17.45,-25.97,-27.61,0,*65
1484413276.11,49676,6.5,71554.5,-17.45,-25.97,-27.67,0,*60
1484413277.33,49677,6.5,71554.5,-17.47,-26.03,-27.71,0,*6A
1484413278.58,49678,6.5,71554.3,-17.47,-26.13,-27.67,0,*63
1484413279.84,49679,6.5,71554.0,-17.47,-26.13,-27.61,0,*64
1484413281.11,49680,6.5,71552.3,-17.47,-25.97,-27.61,0,*6D
1484413282.41,49681,6.5,71548.5,-17.45,-25.81,-27.61,0,*69
1484413283.67,49682,6.5,71554.3,-17.45,-25.97,-27.55,0,*6A
1484413284.92,49683,6.5,71550.8,-17.47,-26.03,-27.61,0,*60
1484413286.22,49684,6.5,71548.0,-17.45,-25.97,-27.61,0,*6B
1484413287.49,49685,6.5,71550.8,-17.45,-25.97,-27.67,0,*6C
1484413288.75,49686,6.5,71554.0,-17.45,-25.91,-27.61,0,*6F
1484413290.0,49687,6.5,71550.8,-17.47,-25.75,-27.29,0,*6A
1484413291.26,49688,6.5,71556.0,-17.45,-25.81,-27.55,0,*67
1484413292.56,49689,6.5,71548.0,-17.45,-25.97,-27.61,0,*66
1484413293.82,49690,6.5,71548.0,-17.45,-25.91,-27.61,0,*68
1484413295.05,49691,6.5,71554.3,-17.47,-26.03,-27.67,0,*65
1484413296.3,49692,6.5,71552.8,-17.45,-26.07,-27.67,0,*60
1484413297.54,49693,6.5,71552.3,-17.45,-26.07,-27.55,0,*60
1484413298.8,49694,6.5,71552.8,-17.47,-26.13,-27.61,0,*67
1484413300.07,49695,6.5,71554.3,-17.47,-26.17,-27.83,0,*6E
1484413301.32,49696,6.5,71554.8,-17.45,-26.07,-27.67,0,*64
1484413302.58,49697,6.5,71556.3,-17.45,-25.91,-27.61,0,*6F
1484413303.83,49698,6.5,71556.5,-17.45,-26.07,-27.67,0,*6A
1484413305.07,49699,6.5,71556.5,-17.47,-25.97,-27.67,0,*63
1484413306.34,49700,6.5,71556.8,-17.45,-26.07,-27.61,0,*6C
1484413307.59,49701,6.5,71552.8,-17.45,-26.07,-27.67,0,*6B
1484413308.83,49702,6.5,71556.5,-17.45,-26.07,-27.67,0,*68
1484413310.07,49703,6.5,71554.0,-17.47,-26.13,-27.67,0,*6E
1484413311.34,49704,6.5,71554.8,-17.45,-26.13,-27.77,0,*6A
1484413312.61,49705,6.5,71556.0,-17.45,-26.07,-27.61,0,*69
1484413313.83,49706,6.5,71554.3,-17.47,-26.03,-27.67,0,*6A
1484413315.1,49707,6.5,71554.5,-17.45,-25.97,-27.55,0,*66
1484413316.32,49708,6.5,71558.3,-17.47,-26.03,-27.67,0,*64
1484413317.59,49709,6.5,71556.3,-17.45,-25.97,-27.55,0,*68
1484413318.84,49710,6.5,71558.5,-17.47,-26.03,-27.61,0,*6B
1484413320.09,49711,6.5,71556.5,-17.47,-26.03,-27.61,0,*6A
1484413321.33,49712,6.5,71558.5,-17.47,-25.87,-27.45,0,*60
1484413322.59,49713,6.5,71556.3,-17.47,-25.81,-27.35,0,*60
1484413323.89,49714,6.5,71556.0,-17.45,-25.75,-27.39,0,*62
1484413325.16,49715,6.5,71556.8,-17.45,-25.75,-27.29,0,*62
1484413326.42,49716,6.5,71558.0,-17.45,-25.65,-27.39,0,*61
1484413327.7,49717,6.5,71558.5,-17.45,-25.97,-27.67,0,*66
1484413328.99,49718,6.5,71562.5,-17.45,-25.97,-27.61,0,*6F
1484413330.29,49719,6.5,71558.3,-17.45,-25.97,-27.61,0,*6E
1484413331.52,49720,6.5,71558.5,-17.45,-25.91,-27.55,0,*65
1484413332.77,49721,6.5,71562.8,-17.45,-25.91,-27.67,0,*65
1484413334.03,49722,6.5,71560.5,-17.45,-25.97,-27.55,0,*61
1484413335.3,49723,6.5,71558.5,-17.45,-25.91,-27.61,0,*61
1484413336.56,49724,6.5,71562.3,-17.45,-25.91,-27.61,0,*66
1484413337.82,49725,6.5,71556.5,-17.43,-25.97,-27.67,0,*61
1484413339.03,49726,6.5,71554.0,-17.39,-25.87,-27.51,0,*6B
1484413340.25,49727,6.5,71558.5,-17.43,-25.91,-27.67,0,*65
1484413341.5,49728,6.5,71554.8,-17.43,-25.97,-27.67,0,*6C
1484413342.72,49729,6.5,71552.3,-17.43,-25.91,-27.77,0,*6A
1484413344.0,49730,6.5,71552.3,-17.43,-25.97,-27.61,0,*63
1484413345.24,49731,6.5,71554.5,-17.43,-25.97,-27.77,0,*65
1484413346.49,49732,6.5,71552.3,-17.43,-25.97,-27.67,0,*67
1484413347.77,49733,6.5,71550.5,-17.43,-25.97,-27.61,0,*60
1484413349.04,49734,6.5,71550.5,-17.43,-25.97,-27.61,0,*67
1484413350.27,49735,6.5,71552.5,-17.43,-25.91,-27.67,0,*66
1484413351.53,49736,6.5,71556.5,-17.39,-25.97,-27.61,0,*68
1484413352.78,49737,6.5,71556.5,-17.43,-25.91,-27.61,0,*62
1484413354.05,49738,6.5,71558.8,-17.43,-25.97,-27.61,0,*6B
1484413355.3,49739,6.5,71556.3,-17.43,-25.91,-27.61,0,*6C
1484413356.52,49740,6.5,71556.0,-17.43,-25.61,-27.29,0,*61
1484413357.77,49741,6.5,71556.5,-17.43,-25.61,-27.35,0,*6D
1484413359.04,49742,6.5,71556.3,-17.39,-25.55,-27.35,0,*64
1484413360.32,49743,6.5,71562.5,-17.43,-25.81,-27.39,0,*6D
1484413361.58,49744,6.5,71558.5,-17.39,-25.55,-27.23,0,*65
1484413362.82,49745,6.5,71558.0,-17.39,-25.61,-27.23,0,*63
1484413364.1,49746,6.5,71562.0,-17.39,-25.55,-27.35,0,*60
1484413365.36,49747,6.5,71560.5,-17.43,-25.75,-27.45,0,*69
1484413366.63,49748,6.5,71560.0,-17.43,-25.81,-27.61,0,*6B
1484413367.9,49749,6.5,71560.0,-17.39,-25.55,-27.23,0,*68
1484413369.14,49750,6.5,71562.8,-17.39,-25.45,-27.07,0,*67
1484413370.39,49751,6.5,71560.0,-17.39,-25.45,-27.19,0,*69
1484413371.63,49752,6.5,71562.8,-17.39,-25.61,-27.19,0,*6C
1484413372.85,49753,6.5,71562.5,-17.39,-25.39,-27.07,0,*6F
1484413374.11,49754,6.5,71556.0,-17.37,-25.39,-27.19,0,*69
1484413375.37,49755,6.5,71558.5,-17.37,-25.39,-27.19,0,*68
1484413376.63,49756,6.5,71558.3,-17.37,-25.45,-27.07,0,*6F
1484413377.87,49757,6.5,71558.0,-17.35,-25.49,-27.19,0,*6F
1484413379.13,49758,6.5,71556.8,-17.35,-25.71,-27.45,0,*62
1484413380.37,49759,6.5,71552.8,-17.37,-25.87,-27.51,0,*6D
1484413381.59,49760,6.5,71556.5,-17.35,-25.87,-27.51,0,*65
1484413382.81,49761,6.5,71556.3,-17.35,-25.87,-27.67,0,*61
1484413384.02,49762,6.5,71558.8,-17.35,-25.87,-27.67,0,*62
1484413385.3,49763,6.5,71552.5,-17.37,-26.03,-27.61,0,*68
1484413386.51,49764,6.5,71558.5,-17.35,-25.87,-27.67,0,*64
1484413387.73,49765,6.5,71556.3,-17.35,-25.87,-27.67,0,*65
1484413388.98,49766,6.5,71560.8,-17.37,-26.03,-27.71,0,*6C
1484413390.23,49767,6.5,71560.8,-17.35,-25.97,-27.67,0,*66
1484413391.47,49768,6.5,71560.8,-17.37,-26.03,-27.71,0,*62
1484413392.71,49769,6.5,71562.5,-17.37,-26.03,-27.71,0,*63
1484413393.96,49770,6.5,71560.0,-17.37,-26.03,-27.71,0,*6B
1484413395.22,49771,6.5,71560.0,-17.37,-25.97,-27.71,0,*64
1484413396.46,49772,6.5,71558.8,-17.35,-25.81,-27.55,0,*64
1484413397.68,49773,6.5,71560.0,-17.35,-25.87,-27.51,0,*67
1484413398.97,49774,6.5,71560.0,-17.37,-25.75,-27.39,0,*61
1484413400.21,49775,6.5,71560.0,-17.35,-25.65,-27.35,0,*6F
1484413401.45,49776,6.5,71566.3,-17.35,-25.49,-27.19,0,*6C
1484413402.69,49777,6.5,71566.3,-17.37,-25.65,-27.29,0,*62
1484413403.95,49778,6.5,71566.5,-17.35,-25.81,-27.45,0,*6F
1484413405.19,49779,6.5,71562.8,-17.35,-25.81,-27.55,0,*6F
1484413406.43,49780,6.5,71562.8,-17.33,-25.87,-27.51,0,*6D
1484413407.67,49781,6.5,71566.0,-17.33,-25.87,-27.55,0,*68
1484413408.93,49782,6.5,71562.5,-17.33,-25.81,-27.55,0,*6D
1484413410.17,49783,6.5,71562.8,-17.33,-25.87,-27.55,0,*6A
1484413411.38,49784,6.5,71562.0,-17.31,-25.87,-27.55,0,*6F
1484413412.62,49785,6.5,71558.5,-17.33,-25.87,-27.67,0,*6D
1484413413.89,49786,6.5,71552.8,-17.33,-25.81,-27.67,0,*68
1484413415.15,49787,6.5,71554.8,-17.33,-25.81,-27.55,0,*68
1484413416.39,49788,6.5,71556.0,-17.33,-25.87,-27.55,0,*61
1484413417.63,49789,6.5,71558.3,-17.33,-25.87,-27.55,0,*60
1484413418.89,49790,6.5,71558.8,-17.33,-25.97,-27.71,0,*6F
1484413420.16,49791,6.5,71560.0,-17.33,-25.97,-27.67,0,*69
1484413421.38,49792,6.5,71560.0,-17.31,-25.91,-27.67,0,*6E
1484413422.64,49793,6.5,71562.8,-17.33,-25.97,-27.67,0,*6B
1484413423.91,49794,6.5,71558.8,-17.33,-25.97,-27.51,0,*69
1484413425.15,49795,6.5,71562.0,-17.33,-25.87,-27.71,0,*6B
1484413426.39,49796,6.5,71566.0,-17.33,-25.87,-27.67,0,*6F
1484413427.66,49797,6.5,71562.8,-17.33,-25.81,-27.67,0,*68
1484413428.92,49798,6.5,71564.3,-17.33,-25.81,-27.51,0,*62
1484413430.19,49799,6.5,71560.8,-17.33,-25.71,-27.51,0,*6C
1484413431.42,49800,6.5,71560.3,-17.33,-25.87,-27.55,0,*6E
1484413432.69,49801,6.5,71562.3,-17.33,-25.81,-27.51,0,*6D
1484413433.95,49802,6.5,71560.3,-17.33,-25.81,-27.51,0,*6E
1484413435.21,49803,6.5,71560.0,-17.33,-25.71,-27.55,0,*64
1484413436.48,49804,6.5,71554.5,-17.33,-25.71,-27.55,0,*63
1484413437.72,49805,6.5,71556.5,-17.35,-25.65,-27.35,0,*67
1484413438.96,49806,6.5,71558.0,-17.31,-25.65,-27.39,0,*6C
1484413440.22,49807,6.5,71556.0,-17.33,-25.65,-27.45,0,*64
1484413441.49,49808,6.5,71558.5,-17.33,-25.71,-27.51,0,*6B
1484413442.73,49809,6.5,71558.3,-17.31,-25.81,-27.51,0,*67
1484413443.97,49810,6.5,71560.0,-17.33,-25.87,-27.67,0,*6E
1484413445.21,49811,6.5,71560.5,-17.33,-25.87,-27.71,0,*68
1484413446.47,49812,6.5,71560.0,-17.31,-25.81,-27.61,0,*6E
1484413447.72,49813,6.5,71562.8,-17.31,-25.81,-27.67,0,*69
1484413448.98,49814,6.5,71562.0,-17.31,-25.81,-27.61,0,*68
1484413450.2,49815,6.5,71560.3,-17.31,-25.91,-27.67,0,*6E
1484413451.46,49816,6.5,71558.0,-17.33,-25.97,-27.71,0,*6E
1484413452.73,49817,6.5,71556.8,-17.33,-25.97,-27.71,0,*6F
1484413453.99,49818,6.5,71558.5,-17.31,-25.75,-27.61,0,*6F
1484413455.24,49819,6.5,71558.5,-17.33,-25.87,-27.67,0,*67
1484413456.5,49820,6.5,71562.3,-17.33,-25.81,-27.67,0,*6B
1484413457.74,49821,6.5,71562.5,-17.33,-25.87,-27.71,0,*6B
1484413458.98,49822,6.5,71560.8,-17.31,-25.81,-27.67,0,*6B
1484413460.22,49823,6.5,71560.5,-17.31,-25.87,-27.83,0,*66
1484413461.46,49824,6.5,71562.0,-17.33,-25.87,-27.67,0,*69
1484413462.71,49825,6.5,71564.5,-17.33,-25.87,-27.67,0,*68
1484413463.95,49826,6.5,71562.0,-17.33,-25.87,-27.67,0,*6B
1484413465.22,49827,6.5,71562.8,-17.31,-25.75,-27.61,0,*63
1484413466.46,49828,6.5,71562.8,-17.33,-25.87,-27.71,0,*62
1484413467.69,49829,6.5,71560.0,-17.33,-25.87,-27.71,0,*63
1484413468.93,49830,6.5,71564.5,-17.31,-25.81,-27.77,0,*69
1484413470.2,49831,6.5,71564.3,-17.33,-25.81,-27.67,0,*6B
1484413471.47,49832,6.5,71564.3,-17.33,-25.71,-27.67,0,*67
1484413472.71,49833,6.5,71564.0,-17.31,-25.75,-27.67,0,*60
1484413473.98,49834,6.5,71564.8,-17.33,-25.81,-27.67,0,*6E
1484413475.22,49835,6.5,71566.0,-17.31,-25.81,-27.67,0,*6D
1484413476.5,49836,6.5,71568.3,-17.33,-25.81,-27.83,0,*66
1484413477.77,49837,6.5,71566.0,-17.31,-25.81,-27.83,0,*65
1484413479.01,49838,6.5,71566.8,-17.31,-25.75,-27.77,0,*6A
1484413480.27,49839,6.5,71564.3,-17.33,-25.87,-27.83,0,*6F
1484413481.51,49840,6.5,71564.3,-17.33,-25.87,-27.89,0,*6B
1484413482.77,49841,6.5,71564.8,-17.31,-25.81,-27.83,0,*64
1484413484.06,49842,6.5,71566.8,-17.33,-25.81,-27.83,0,*65
1484413485.35,49843,6.5,71564.5,-17.33,-25.71,-27.83,0,*6B
1484413486.62,49844,6.5,71564.5,-17.33,-25.71,-27.71,0,*61
1484413487.86,49845,6.5,71566.5,-17.31,-25.61,-27.61,0,*62
1484413489.13,49846,6.5,71564.3,-17.33,-25.71,-27.67,0,*64
1484413490.37,49847,6.5,71564.0,-17.33,-25.65,-27.67,0,*60
1484413491.64,49848,6.5,71564.5,-17.33,-25.71,-27.67,0,*6A
1484413492.91,49849,6.5,71564.8,-17.33,-25.71,-27.71,0,*6C
1484413494.13,49850,6.5,71564.3,-17.31,-25.61,-27.67,0,*60
1484413495.37,49851,6.5,71566.3,-17.31,-25.61,-27.61,0,*67
1484413496.61,49852,6.5,71564.0,-17.31,-25.61,-27.61,0,*64
1484413497.83,49853,6.5,71562.3,-17.31,-25.49,-27.67,0,*69
1484413499.05,49854,6.5,71568.0,-17.31,-25.65,-27.67,0,*60
1484413500.31,49855,6.5,71564.8,-17.33,-25.81,-27.71,0,*6E
1484413501.55,49856,6.5,71568.0,-17.31,-25.81,-27.71,0,*6F
1484413502.79,49857,6.5,71564.0,-17.29,-25.61,-27.67,0,*6E
1484413504.08,49858,6.5,71568.5,-17.33,-25.81,-27.83,0,*6E
1484413505.37,49859,6.5,71566.8,-17.33,-25.71,-27.83,0,*60
1484413506.58,49860,6.5,71568.0,-17.31,-25.65,-27.77,0,*66
1484413507.8,49861,6.5,71566.5,-17.31,-25.61,-27.67,0,*62
1484413509.07,49862,6.5,71568.3,-17.29,-25.61,-27.61,0,*6E
1484413510.34,49863,6.5,71564.0,-17.29,-25.49,-27.61,0,*65
1484413511.6,49864,6.5,71566.5,-17.29,-25.65,-27.61,0,*6C
1484413512.87,49865,6.5,71564.3,-17.29,-25.61,-27.61,0,*69
1484413514.14,49866,6.5,71564.3,-17.27,-25.55,-27.61,0,*63
1484413515.39,49867,6.5,71564.5,-17.27,-25.61,-27.61,0,*65
1484413516.68,49868,6.5,71566.5,-17.29,-25.75,-27.83,0,*6D
1484413517.97,49869,6.5,71568.0,-17.29,-25.75,-27.83,0,*6C
1484413519.26,49870,6.5,71564.5,-17.29,-25.81,-27.83,0,*6F
1484413520.55,49871,6.5,71562.8,-17.29,-25.81,-27.83,0,*6E
1484413521.84,49872,6.5,71562.8,-17.29,-25.81,-27.99,0,*66
1484413523.1,49873,6.5,71562.3,-17.29,-25.81,-27.93,0,*6D
1484413524.39,49874,6.5,71562.3,-17.29,-25.81,-27.99,0,*60
1484413525.66,49875,6.5,71560.8,-17.29,-25.81,-27.93,0,*6B
1484413526.92,49876,6.5,71562.3,-17.29,-25.81,-27.93,0,*68
1484413528.16,49877,6.5,71562.8,-17.27,-25.75,-27.89,0,*67
1484413529.45,49878,6.5,71560.3,-17.29,-25.81,-27.83,0,*67
1484413530.7,49879,6.5,71556.5,-17.27,-25.75,-27.89,0,*69
1484413531.99,49880,6.5,71556.8,-17.29,-25.81,-27.99,0,*6B
1484413533.25,49881,6.5,71558.0,-17.29,-25.81,-27.93,0,*60
1484413534.52,49882,6.5,71558.0,-17.29,-25.91,-28.09,0,*6E
1484413535.75,49883,6.5,71556.8,-17.29,-25.91,-27.93,0,*63
1484413537.02,49884,6.5,71556.8,-17.29,-25.91,-27.99,0,*6E
1484413538.28,49885,6.5,71560.3,-17.29,-25.91,-27.99,0,*6F
1484413539.55,49886,6.5,71558.3,-17.29,-25.91,-27.99,0,*6C
1484413540.79,49887,6.5,71562.8,-17.31,-25.91,-27.99,0,*64
1484413542.05,49888,6.5,71558.8,-17.29,-25.81,-27.93,0,*69
1484413543.31,49889,6.5,71562.5,-17.29,-25.81,-27.93,0,*68
1484413544.58,49890,6.5,71556.8,-17.29,-25.65,-27.83,0,*6B
1484413545.87,49891,6.5,71556.5,-17.29,-25.81,-27.99,0,*6B
1484413547.16,49892,6.5,71558.8,-17.29,-25.75,-27.83,0,*68
1484413548.43,49893,6.5,71562.3,-17.29,-25.75,-27.93,0,*68
1484413549.69,49894,6.5,71562.3,-17.29,-25.81,-27.93,0,*64
1484413550.95,49895,6.5,71566.8,-17.29,-25.81,-27.93,0,*65
1484413552.22,49896,6.5,71560.5,-17.29,-25.75,-27.93,0,*6D
1484413553.48,49897,6.5,71562.8,-17.29,-25.91,-27.99,0,*6C
1484413554.75,49898,6.5,71566.3,-17.29,-25.91,-27.99,0,*63
1484413556.04,49899,6.5,71564.8,-17.29,-25.81,-27.99,0,*63
1484413557.33,49900,6.5,71560.8,-17.29,-25.81,-27.99,0,*62
1484413558.57,49901,6.5,71566.3,-17.31,-25.91,-27.99,0,*6B
1484413559.78,49902,6.5,71564.3,-17.31,-25.91,-27.93,0,*62
1484413561.02,49903,6.5,71564.8,-17.31,-25.91,-27.99,0,*69
1484413562.26,49904,6.5,71570.0,-17.31,-25.81,-27.93,0,*65
1484413563.52,49905,6.5,71568.0,-17.31,-25.81,-27.99,0,*6E
1484413564.82,49906,6.5,71570.3,-17.29,-25.81,-27.99,0,*64
1484413566.11,49907,6.5,71564.8,-17.29,-25.75,-27.99,0,*6E
1484413567.41,49908,6.5,71564.8,-17.29,-25.75,-27.99,0,*61
1484413568.7,49909,6.5,71566.3,-17.29,-25.75,-27.83,0,*6B
1484413569.96,49910,6.5,71566.8,-17.29,-25.91,-27.99,0,*62
1484413571.23,49911,6.5,71566.5,-17.29,-25.91,-27.99,0,*63
1484413572.52,49912,6.5,71564.5,-17.29,-25.75,-27.99,0,*6A
1484413573.76,49913,6.5,71562.8,-17.31,-25.91,-27.99,0,*68
1484413575.0,49914,6.5,71568.0,-17.31,-25.91,-27.99,0,*6F
1484413576.27,49915,6.5,71566.0,-17.29,-25.91,-27.99,0,*67
1484413577.53,49916,6.5,71566.5,-17.29,-25.91,-27.99,0,*64
1484413578.8,49917,6.5,71566.3,-17.29,-25.91,-28.09,0,*63
1484413580.06,49918,6.5,71564.5,-17.29,-25.91,-28.09,0,*6C
1484413581.33,49919,6.5,71564.0,-17.29,-25.91,-27.99,0,*6B
1484413582.62,49920,6.5,71564.8,-17.29,-25.75,-27.99,0,*6B
1484413583.91,49921,6.5,71564.0,-17.29,-25.81,-27.99,0,*61
1484413585.2,49922,6.5,71564.8,-17.29,-25.81,-27.99,0,*62
1484413586.45,49923,6.5,71570.5,-17.29,-25.91,-28.15,0,*69
1484413587.71,49924,6.5,71566.3,-17.29,-25.91,-28.09,0,*63
1484413588.97,49925,6.5,71566.8,-17.29,-25.91,-28.09,0,*62
1484413590.27,49926,6.5,71566.3,-17.29,-25.97,-28.09,0,*67
1484413591.53,49927,6.5,71562.5,-17.29,-25.91,-28.09,0,*60
1484413592.77,49928,6.5,71564.0,-17.29,-25.91,-28.15,0,*62
1484413594.03,49929,6.5,71560.5,-17.29,-25.91,-28.09,0,*6E
1484413595.3,49930,6.5,71560.3,-17.29,-25.91,-28.09,0,*66
1484413596.59,49931,6.5,71556.5,-17.29,-25.81,-27.99,0,*60
1484413597.86,49932,6.5,71562.8,-17.27,-25.75,-28.05,0,*6C
1484413599.15,49933,6.5,71564.3,-17.29,-25.81,-28.09,0,*64
1484413600.44,49934,6.5,71560.5,-17.29,-25.81,-28.09,0,*63
1484413601.73,49935,6.5,71564.8,-17.29,-25.81,-28.09,0,*62
1484413602.98,49936,6.5,71566.3,-17.27,-25.87,-28.05,0,*65
1484413604.27,49937,6.5,71564.8,-17.29,-25.97,-28.09,0,*67
1484413605.52,49938,6.5,71564.5,-17.27,-25.87,-28.05,0,*6B
1484413606.78,49939,6.5,71566.8,-17.29,-25.91,-28.09,0,*6F
1484413608.03,49940,6.5,71566.8,-17.27,-25.87,-28.05,0,*64
1484413609.29,49941,6.5,71566.5,-17.29,-25.91,-28.09,0,*60
1484413610.54,49942,6.5,71566.8,-17.27,-25.87,-28.05,0,*66
1484413611.8,49943,6.5,71568.0,-17.29,-25.91,-28.09,0,*62
1484413613.04,49944,6.5,71570.3,-17.29,-25.91,-28.15,0,*68
1484413614.31,49945,6.5,71566.8,-17.29,-25.91,-28.09,0,*64
1484413615.6,49946,6.5,71566.8,-17.29,-25.81,-28.09,0,*66
1484413616.89,49947,6.5,71568.0,-17.29,-25.81,-28.09,0,*67
1484413618.13,49948,6.5,71570.8,-17.27,-25.75,-27.93,0,*61
1484413619.42,49949,6.5,71568.5,-17.29,-25.81,-27.99,0,*6F
1484413620.71,49950,6.5,71566.3,-17.29,-25.81,-28.09,0,*61
1484413622.0,49951,6.5,71568.8,-17.29,-25.81,-28.09,0,*60
1484413623.24,49952,6.5,71570.0,-17.27,-25.81,-27.89,0,*6A
1484413624.54,49953,6.5,71568.8,-17.29,-25.75,-27.99,0,*6F
1484413625.81,49954,6.5,71568.3,-17.27,-25.71,-28.05,0,*68
1484413627.08,49955,6.5,71566.8,-17.27,-25.81,-28.05,0,*66
1484413628.38,49956,6.5,71570.5,-17.29,-25.81,-27.99,0,*61
1484413629.64,49957,6.5,71568.3,-17.29,-25.75,-27.93,0,*61
1484413630.88,49958,6.5,71568.0,-17.27,-25.75,-27.93,0,*60
1484413632.17,49959,6.5,71568.0,-17.29,-25.81,-27.99,0,*6E
1484413633.44,49960,6.5,71568.3,-17.29,-25.81,-28.15,0,*6F
1484413634.73,49961,6.5,71570.5,-17.29,-25.81,-28.09,0,*63
1484413636.03,49962,6.5,71570.0,-17.29,-25.81,-27.99,0,*66
1484413637.27,49963,6.5,71564.3,-17.27,-25.87,-28.05,0,*65
1484413638.54,49964,6.5,71566.0,-17.29,-25.91,-28.09,0,*67
1484413639.78,49965,6.5,71564.5,-17.27,-25.87,-28.09,0,*6F
1484413641.07,49966,6.5,71566.5,-17.29,-25.81,-28.09,0,*64
1484413642.36,49967,6.5,71564.8,-17.29,-25.81,-28.09,0,*65
1484413643.61,49968,6.5,71568.3,-17.27,-25.87,-28.05,0,*6E
1484413644.85,49969,6.5,71568.5,-17.29,-25.91,-28.15,0,*67
1484413646.09,49970,6.5,71564.8,-17.27,-25.87,-28.09,0,*6B
1484413647.36,49971,6.5,71568.3,-17.29,-25.91,-28.09,0,*63
1484413648.6,49972,6.5,71566.3,-17.27,-25.87,-28.05,0,*65
1484413649.86,49973,6.5,71568.8,-17.29,-25.91,-28.09,0,*61
1484413651.16,49974,6.5,71564.8,-17.29,-25.81,-28.09,0,*67
1484413652.43,49975,6.5,71568.5,-17.27,-25.75,-28.05,0,*6F
1484413653.7,49976,6.5,71568.5,-17.27,-25.75,-28.05,0,*6C
1484413654.94,49977,6.5,71570.0,-17.27,-25.71,-27.93,0,*69
1484413656.24,49978,6.5,71564.3,-17.29,-25.81,-27.99,0,*6D
1484413657.48,49979,6.5,71566.5,-17.27,-25.75,-27.93,0,*63
1484413658.77,49980,6.5,71566.8,-17.29,-25.81,-27.99,0,*6A
1484413660.05,49981,6.5,71566.3,-17.27,-25.71,-28.05,0,*60
1484413661.32,49982,6.5,71570.0,-17.27,-25.71,-28.05,0,*63
1484413662.57,49983,6.5,71564.3,-17.27,-25.75,-27.89,0,*6D
1484413663.82,49984,6.5,71568.3,-17.27,-25.71,-27.89,0,*6E
1484413665.06,49985,6.5,71568.3,-17.27,-25.75,-27.89,0,*6B
1484413666.36,49986,6.5,71568.0,-17.29,-25.75,-27.99,0,*67
1484413667.63,49987,6.5,71568.5,-17.27,-25.75,-28.05,0,*62
1484413668.9,49988,6.5,71566.8,-17.27,-25.75,-28.05,0,*6D
1484413670.15,49989,6.5,71568.0,-17.27,-25.87,-28.05,0,*61
1484413671.39,49990,6.5,71564.5,-17.27,-25.91,-28.05,0,*6E
1484413672.68,49991,6.5,71568.0,-17.29,-25.81,-27.99,0,*6A
1484413673.93,49992,6.5,71566.5,-17.27,-25.75,-27.93,0,*66
1484413675.17,49993,6.5,71566.8,-17.27,-25.87,-28.05,0,*6A
1484413676.42,49994,6.5,71568.3,-17.27,-25.87,-28.09,0,*61
1484413677.66,49995,6.5,71568.3,-17.27,-25.91,-28.09,0,*67
1484413678.91,49996,6.5,71568.0,-17.27,-25.87,-28.05,0,*6F
1484413680.15,49997,6.5,71572.0,-17.27,-25.87,-28.05,0,*6E
1484413681.39,49998,6.5,71568.3,-17.27,-25.91,-28.09,0,*6A
1484413682.64,49999,6.5,71566.5,-17.27,-25.87,-28.09,0,*6C
1484413683.88,50000,6.5,71570.8,-17.27,-25.87,-28.05,0,*61
1484413685.13,50001,6.5,71566.3,-17.27,-25.87,-28.09,0,*6C
1484413686.39,50002,6.5,71568.5,-17.29,-25.91,-28.09,0,*66
1484413687.63,50003,6.5,71570.0,-17.27,-25.91,-28.05,0,*65
1484413688.88,50004,6.5,71570.0,-17.27,-25.91,-28.05,0,*62
1484413690.12,50005,6.5,71566.8,-17.27,-25.91,-28.09,0,*6F
1484413691.36,50006,6.5,71564.0,-17.27,-25.87,-28.05,0,*67
1484413692.61,50007,6.5,71568.3,-17.27,-25.87,-28.05,0,*66
1484413693.86,50008,6.5,71568.5,-17.27,-25.87,-28.09,0,*65
1484413695.1,50009,6.5,71568.8,-17.27,-25.91,-28.05,0,*6F
1484413696.34,50010,6.5,71570.3,-17.27,-25.87,-28.09,0,*6C
1484413697.59,50011,6.5,71570.8,-17.27,-25.87,-28.05,0,*61
1484413698.84,50012,6.5,71570.8,-17.27,-25.87,-28.05,0,*62
1484413700.1,50013,6.5,71570.8,-17.29,-25.91,-28.09,0,*66
1484413701.35,50014,6.5,71568.3,-17.27,-25.87,-28.05,0,*64
1484413702.59,50015,6.5,71570.8,-17.27,-25.87,-28.05,0,*65
1484413703.84,50016,6.5,71574.0,-17.27,-25.87,-28.05,0,*66
1484413705.08,50017,6.5,71570.0,-17.27,-25.87,-28.09,0,*6B
1484413706.33,50018,6.5,71570.3,-17.27,-25.87,-28.05,0,*68
1484413707.55,50019,6.5,71566.5,-17.27,-25.87,-27.93,0,*69
1484413708.79,50020,6.5,71570.0,-17.29,-25.91,-28.15,0,*6B
1484413710.04,50021,6.5,71570.3,-17.27,-25.87,-28.05,0,*62
1484413711.3,50022,6.5,71570.8,-17.29,-25.91,-28.09,0,*64